Date String (YYYY-MM-DD hh:mm:ss) UTC,Instrument flags,absolute air pressure of the measurement (hPa),sample flow rate (lpm),inlet stack bypass flow (lpm),air temperature of the measurement (°C),ambient temperature measured by the external sensor (°C),aerosol sample conditioner tube jacket temperature (°C),OPC LED temperature (°C),internal box temperature (°C),relative humidity of the measurement (%),span deviation,mass concentration of particles derived from Lorenz-Mie calculation of OPC scattering (μg/m³),mass concentration of particles derived from Lorenz-Mie calculation of OPC scattering (μg/m³),mass concentration of particles derived from Lorenz-Mie calculation of OPC scattering (μg/m³)
DateTimeUTC,F1_M11,P_M11,Q1_M11,Q2_M11,T1_M11,T2_M11,T3_M11,T4_M11,T5_M11,U1_M11,ZSPAN_M11,X0_M11,X2_M11,X1_M11
2024-03-30 09:00:00,SystemResetWarning,0824.9,5.02,000.00,020.5,019.9,000.0,029.0,022.3,29.4,-001.6,0016.53,0011.15,0010.31
2024-03-30 09:01:00,SystemResetWarning,0824.9,5.00,000.00,020.5,019.9,000.0,029.0,022.3,29.4,-001.2,0016.64,0011.19,0010.32
2024-03-30 09:02:00,SystemResetWarning,0824.9,4.99,000.00,020.5,019.9,000.0,029.1,022.3,29.4,-001.2,0016.80,0011.18,0010.33
2024-03-30 09:03:00,SystemResetWarning,0824.9,4.99,000.00,020.5,019.9,000.0,029.0,022.3,29.4,-001.3,0017.19,0011.22,0010.34
2024-03-30 09:04:00,SystemResetWarning,0824.9,4.99,000.00,020.5,019.9,000.0,029.0,022.3,29.4,-001.2,0016.55,0011.22,0010.34
2024-03-30 09:05:00,SystemResetWarning,0824.9,5.00,000.00,020.5,019.9,000.0,029.1,022.3,29.4,-000.8,0016.16,0011.22,0010.34
2024-03-30 09:06:00,SystemResetWarning,0824.8,5.01,000.00,020.5,019.9,000.0,029.0,022.3,29.4,-000.4,0015.79,0011.24,0010.34
2024-03-30 09:07:00,SystemResetWarning,0824.8,5.01,000.00,020.5,019.9,000.0,029.0,022.3,29.4,-000.1,0015.48,0011.22,0010.35
2024-03-30 09:08:00,SystemResetWarning,0824.8,4.99,000.00,020.5,019.9,000.0,029.0,022.3,29.5,0000.0,0015.53,0011.21,0010.35
2024-03-30 09:09:00,SystemResetWarning,0824.8,5.00,000.00,020.5,019.9,000.0,029.0,022.3,29.6,-000.0,0015.19,0011.22,0010.37
2024-03-30 09:10:00,SystemResetWarning,0824.8,4.99,000.00,020.5,019.9,000.0,029.0,022.3,29.6,-000.4,0015.67,0011.20,0010.38
2024-03-30 09:11:00,SystemResetWarning,0824.8,4.99,000.00,020.5,019.9,000.0,029.0,022.3,29.5,-000.0,0015.54,0011.17,0010.39
2024-03-30 09:12:00,SystemResetWarning,0824.7,5.01,000.00,020.5,019.9,000.0,029.0,022.3,29.5,-000.3,0015.27,0011.15,0010.39
2024-03-30 09:13:00,SystemResetWarning,0824.7,5.01,000.00,020.5,019.9,000.0,029.0,022.3,29.5,-000.2,0015.06,0011.17,0010.42
2024-03-30 09:14:00,SystemResetWarning,0824.7,5.01,000.00,020.5,019.9,000.0,029.0,022.3,29.5,-000.1,0014.89,0011.18,0010.44
2024-03-30 09:15:00,SystemResetWarning,0824.7,5.00,000.00,020.5,019.9,000.0,029.0,022.3,29.5,-000.3,0014.79,0011.17,0010.46
2024-03-30 09:16:00,SystemResetWarning,0824.7,5.00,000.00,020.5,019.9,000.0,029.0,022.3,29.5,-000.9,0014.48,0011.09,0010.45
2024-03-30 09:17:00,SystemResetWarning,0824.7,5.00,000.00,020.5,019.9,000.0,029.0,022.3,29.7,-000.9,0014.45,0011.06,0010.43
2024-03-30 09:18:00,SystemResetWarning,0824.7,5.00,000.00,020.5,019.9,000.0,029.0,022.3,29.6,-000.9,0015.06,0011.04,0010.41
2024-03-30 09:19:00,SystemResetWarning,0824.7,4.99,000.00,020.5,019.9,000.0,029.0,022.3,29.5,-001.0,0014.71,0011.02,0010.42
2024-03-30 09:20:00,SystemResetWarning,0824.7,5.00,000.00,020.5,019.9,000.0,029.0,022.3,29.5,-000.6,0014.82,0011.05,0010.45
2024-03-30 09:21:00,SystemResetWarning,0824.7,5.00,000.00,020.5,019.9,000.0,029.0,022.3,29.5,-000.5,0014.62,0011.10,0010.48
2024-03-30 09:22:00,SystemResetWarning,0824.7,5.00,000.00,020.5,019.9,000.0,029.0,022.3,29.6,-000.9,0014.73,0011.16,0010.53
2024-03-30 09:23:00,SystemResetWarning,0824.7,5.00,000.00,020.5,019.9,000.0,029.0,022.3,29.5,-000.7,0014.88,0011.22,0010.58
2024-03-30 09:24:00,SystemResetWarning,0824.7,4.99,000.00,020.5,019.9,000.0,029.0,022.3,29.6,-000.8,0014.88,0011.25,0010.62
2024-03-30 09:25:00,SystemResetWarning,0824.7,5.00,000.00,020.5,019.9,000.0,029.0,022.3,29.6,-000.7,0014.83,0011.27,0010.66
2024-03-30 09:26:00,SystemResetWarning,0824.7,5.00,000.00,020.5,019.9,000.0,029.0,022.3,29.9,-000.7,0014.99,0011.34,0010.71
2024-03-30 09:27:00,SystemResetWarning,0824.7,5.01,000.00,020.5,019.9,000.0,029.0,022.3,29.8,-000.4,0015.05,0011.39,0010.76
2024-03-30 09:28:00,SystemResetWarning,0824.7,5.00,000.00,020.5,019.9,000.0,029.0,022.3,29.7,-000.7,0015.10,0011.42,0010.81
2024-03-30 09:29:00,SystemResetWarning,0824.7,5.00,000.00,020.5,019.9,000.0,029.0,022.3,29.7,-000.5,0014.48,0011.48,0010.86
2024-03-30 09:30:00,SystemResetWarning,0824.7,5.00,000.00,020.5,019.9,000.0,029.0,022.3,29.6,-000.4,0014.24,0011.55,0010.91
2024-03-30 09:31:00,SystemResetWarning,0824.7,4.99,000.00,020.5,019.9,000.0,029.0,022.3,29.7,-000.3,0014.29,0011.54,0010.91
2024-03-30 09:32:00,SystemResetWarning,0824.7,4.99,000.00,020.5,019.9,000.0,029.0,022.3,29.7,-000.2,0014.19,0011.51,0010.91
2024-03-30 09:33:00,SystemResetWarning,0824.7,5.00,000.00,020.5,019.9,000.0,029.0,022.3,29.6,0000.1,0014.02,0011.46,0010.89
2024-03-30 09:34:00,SystemResetWarning,0824.7,5.00,000.00,020.5,019.9,000.0,029.0,022.3,29.6,0000.1,0013.92,0011.41,0010.86
2024-03-30 09:35:00,SystemResetWarning,0824.7,5.01,000.00,020.5,019.9,000.0,029.0,022.3,29.6,-000.1,0013.88,0011.34,0010.81
2024-03-30 09:36:00,SystemResetWarning,0824.7,5.01,000.00,020.5,019.9,000.0,029.0,022.3,29.6,-000.1,0013.74,0011.29,0010.76
2024-03-30 09:37:00,SystemResetWarning,0824.7,4.98,000.00,020.5,019.9,000.0,029.0,022.3,29.6,-000.0,0013.56,0011.21,0010.71
2024-03-30 09:38:00,SystemResetWarning,0824.6,4.99,000.00,020.5,019.9,000.0,029.0,022.3,29.6,-000.2,0013.68,0011.14,0010.66
2024-03-30 09:39:00,SystemResetWarning,0824.7,5.00,000.00,020.5,019.9,000.0,029.0,022.3,29.6,-000.0,0013.80,0011.07,0010.61
2024-03-30 09:40:00,SystemResetWarning,0824.7,5.00,000.00,020.5,019.9,000.0,029.0,022.3,29.6,-000.3,0013.66,0011.01,0010.58
2024-03-30 09:41:00,SystemResetWarning,0824.7,5.00,000.00,020.5,019.9,000.0,029.0,022.3,29.6,-000.1,0013.45,0010.92,0010.52
2024-03-30 09:42:00,SystemResetWarning,0824.7,5.01,000.00,020.5,019.9,000.0,029.0,022.3,29.6,-000.4,0013.18,0010.86,0010.49
2024-03-30 09:43:00,SystemResetWarning,0824.7,5.00,000.00,020.5,019.9,000.0,029.0,022.3,29.6,-000.5,0012.89,0010.83,0010.45
2024-03-30 09:44:00,SystemResetWarning,0824.7,4.99,000.00,020.5,019.9,000.0,029.0,022.3,29.6,-000.6,0012.93,0010.83,0010.44
2024-03-30 09:45:00,SystemResetWarning,0824.7,4.99,000.00,020.5,019.9,000.0,029.0,022.3,29.9,-000.8,0012.96,0010.82,0010.42
2024-03-30 09:46:00,SystemResetWarning,0824.7,5.00,000.00,020.5,019.9,000.0,029.0,022.3,29.8,-000.7,0012.98,0010.85,0010.43
2024-03-30 09:47:00,SystemResetWarning,0824.7,5.00,000.00,020.5,019.9,000.0,029.0,022.3,29.8,-000.8,0012.95,0010.85,0010.44
2024-03-30 09:48:00,SystemResetWarning,0824.7,5.00,000.00,020.5,019.9,000.0,029.0,022.3,29.7,-000.7,0012.96,0010.86,0010.46
2024-03-30 09:49:00,SystemResetWarning,0824.7,5.00,000.00,020.5,019.9,000.0,029.0,022.3,29.7,-000.7,0012.95,0010.90,0010.49
2024-03-30 09:50:00,SystemResetWarning,0824.7,5.00,000.00,020.5,019.9,000.0,029.0,022.3,29.8,-000.7,0012.73,0010.92,0010.50
2024-03-30 09:51:00,SystemResetWarning,0824.7,5.01,000.00,020.5,019.9,000.0,029.0,022.3,29.8,-000.3,0012.72,0010.90,0010.48
2024-03-30 09:52:00,SystemResetWarning,0824.7,5.01,000.00,020.5,019.9,000.0,029.0,022.3,29.8,-000.5,0012.74,0010.90,0010.48
2024-03-30 09:53:00,SystemResetWarning,0824.6,5.01,000.00,020.5,019.9,000.0,029.0,022.3,29.7,-000.6,0012.82,0010.95,0010.51
2024-03-30 09:54:00,SystemResetWarning,0824.5,5.00,000.00,020.5,019.9,000.0,029.0,022.3,29.7,-000.6,0012.77,0010.96,0010.54
2024-03-30 09:55:00,SystemResetWarning,0824.5,4.99,000.00,020.5,019.9,000.0,029.0,022.3,29.7,-000.9,0012.74,0010.98,0010.57
2024-03-30 09:56:00,SystemResetWarning,0824.5,4.99,000.00,020.5,019.9,000.0,029.0,022.3,29.7,-000.9,0012.86,0011.00,0010.60
2024-03-30 09:57:00,SystemResetWarning,0824.6,5.00,000.00,020.5,019.9,000.0,029.0,022.3,29.7,-001.2,0013.45,0011.04,0010.64
2024-03-30 09:58:00,SystemResetWarning,0824.6,5.01,000.00,020.5,019.9,000.0,029.0,022.3,29.7,-001.1,0013.52,0011.09,0010.66
2024-03-30 09:59:00,SystemResetWarning,0824.5,5.01,000.00,020.5,019.9,000.0,029.0,022.3,29.8,-001.0,0013.59,0011.12,0010.67
